Location: City of Moscow
(46.7306°N, 116.9989°W)
Time: 16:19:04
(UTC+00:00)

Cosmos 841 Rocket - Pass Details

Date: 11 December 2025
Orbit: 743 x 767 km, 74.0° (Epoch: 16 January)

Event Time Altitude Azimuth Distance (km) Brightness Sun altitude
Exits shadow 13:22:17 34° 315° (NW) 1,249 4.1 -19.7°
Drops below altitude 10° 13:26:32 10° 7° (N) 2,317 5.9 -19.0°
Sets 13:29:08 0° 17° (NNE) 3,247 6.8 -18.6°
